Regional Weather Roundup
Issued by NWS Wakefield, VA

Current Version | Previous Version | Text Only | Print | Product List | Glossary Off
Versions: 1 2 3 4 5 6 7 8 9 10 11 12 13 14 15 16 17 18 19 20 21 22 23 24 25 26 27 28

000
ASUS41 KAKQ 242215
RWRAKQ

REGIONAL WEATHER ROUNDUP
NATIONAL WEATHER SERVICE WAKEFIELD VA
600 PM EDT SUN JUL 24 2016

Note: "fair" indicates few or no clouds below 12,000 feet with no
significant weather and/or obstructions to visibility. * = Denotes
station may not report precipitation (e.g., rain,snow,etc.),
thunder or fog.

VAZ042-051-052>054-056-242300-
NORTHERN VIRGINIA

CITY           SKY/WX    TMP DP  RH WIND       PRES   REMARKS
WASH NATIONAL  PTSUNNY   95  70  44 S10       29.94F HX 101
DULLES         PTSUNNY   94  67  41 S10G18    29.94F HX  97
FORT BELVOIR   FAIR      95  69  43 VRB6      29.95S HX 100
QUANTICO       FAIR      93  72  50 S5        29.95F HX 101
FREDERICKSBRG*   N/A     96  73  46 S7        29.94S HX 105
STAFFORD*      FAIR      95  67  39 E5        30.00S HX  98
WARRENTON      FAIR      95  64  36 SE6       29.95F HX  97
CULPEPER*      FAIR      94  71  47 S5        29.96S HX 101
MANASSAS*      SUNNY     93  66  40 S8        29.95  HX  96
LEESBURG*      FAIR      97  70  41 SW7       29.96S HX 103
WINCHESTER     FAIR      93  68  43 SE8       29.96S HX  97
FRONT ROYAL*   FAIR      91  72  52 S5        29.95S HX  98
LURAY*         FAIR      93  70  46 SW6       29.97F HX  99
$$

VAZ048-049-060>072-079>083-242300-
CENTRAL AND SOUTH CENTRAL VIRGINIA

CITY           SKY/WX    TMP DP  RH WIND       PRES   REMARKS
RICHMOND       FAIR      94  74  52 S8        29.95S HX 104
CHESTERFIELD*  MOCLDY    95  70  43 S3        29.97S HX 101
PETERSBURG*    FAIR      96  75  51 CALM      29.96S HX 108
HANOVER        PTSUNNY   95  75  52 CALM      29.97S HX 107
TAPPAHANNOCK*  FAIR      96  69  40 E8        29.96F HX 101
QUINTON*       FAIR      94  78  58 CALM      29.94S HX 110
CHARLOTTSVILLE FAIR      97  72  44 S7        29.96S HX 105
GORDONSVILLE*  FAIR      93  74  53 SE7       29.96S HX 103
ORANGE*          N/A     95  70  43 CALM      29.98S HX 101
LOUISA*        FAIR      95  75  52 E3        29.96S HX 107
BUMPASS*       FAIR      92  76  60 CALM      29.96F HX 104
FARMVILLE*     FAIR      99  64  32 SW7       29.95  HX 101
CREWE*         FAIR      96  73  48 S8        29.97R HX 105
FORT PICKETT*  FAIR      94  73  49 SW9       29.97S HX 103
CHASE CITY*    FAIR      95  71  45 S6        29.99S HX 101
CLARKSVILLE*   FAIR      93  73  52 SW6       29.99R HX 102
SOUTH HILL*    FAIR      94  74  52 SW6       30.04S HX 103
LAWRENCEVILLE* FAIR      94  75  54 S7        29.97S HX 105
EMPORIA*       FAIR      93  73  52 SE6       29.98S HX 102
$$

VAZ088>098-242300-
SOUTHEAST VIRGINIA

CITY           SKY/WX    TMP DP  RH WIND       PRES   REMARKS
NORFOLK        FAIR      94  74  52 E7        29.95F HX 104
VIRGINIA BEACH PTSUNNY   95  77  55 E5        29.95S HX 109
NORFOLK NAVAL  PTSUNNY   94  75  54 E7        29.96F HX 105
WEST POINT*    FAIR      94  76  54 S5        29.96S HX 107
SALUDA*        FAIR      89  80  75 E7        29.96S HX 105
NEWPORT NEWS   FAIR      95  75  52 SW9       29.95S HX 107
LANGLEY AFB    FAIR      92  78  63 NE10      29.95F HX 106
FORT EUSTIS    FAIR      95  78  58 S3        29.94S HX 111
WILLIAMSBURG*  FAIR      97  81  59 SE3       29.96S HX 118
HR EXEC AP*    FAIR      95  77  55 S8        29.97S HX 109
FRANKLIN*      FAIR      93  74  53 SW9       29.96S HX 103
US460-WAKEFLD  FAIR      95  76  53 S5        29.96S HX 108
$$

VAZ020-022-025-037-045-242300-
WEST CENTRAL AND SOUTHWEST VIRGINIA

CITY           SKY/WX    TMP DP  RH WIND       PRES   REMARKS
STAUNTON*      FAIR      90  75  59 S8        30.01F HX 100
WAYNESBORO*    MOCLDY    92  73  54 SE5       30.02F HX 100
HOT SPRINGS VA NOT AVBL
LYNCHBURG      FAIR      93  71  48 S9        30.01S HX 100
DANVILLE       FAIR      93  71  48 VRB5      29.99S HX 100
SOUTH BOSTON*  FAIR      94  72  48 S5        29.99R HX 102
MARTINSVILLE   FAIR      93  69  44 CALM      30.04R HX  98
ROANOKE        FAIR      96  66  37 S10       30.02S HX  99
BLACKSBURG     LGT RAIN  83  72  69 SE18      30.12S
DUBLIN*        FAIR      93  58  30 S9        30.09S
MARION*        PTSUNNY   91  66  44 CALM      30.13R
HILLSVILLE*    FAIR      87  66  50 S5        30.13R
RICHLANDS*     FAIR      89  69  51 NW3       30.12S
WISE*          PTSUNNY   88  61  40 CALM      30.14S
ABINGDON*      FAIR      92  65  41 N8        30.08R
$$

MDZ021>025-VAZ099-100-242300-
SOUTHERN MARYLAND AND THE DELMARVA PENINSULA

CITY           SKY/WX    TMP DP  RH WIND       PRES   REMARKS
PATUXENT RIVER PTSUNNY   91  73  55 S8        29.95F HX  99
BAY BRIDGE APT SUNNY     93  66  40 S6        29.95F HX  96
LEONARDTOWN    SUNNY     91  64  40 SE5       29.97F
DOVER          MOSUNNY   85  73  68 E8        29.95F
GEORGETOWN     SUNNY     92  64  39 SW7       29.97S
EASTON         MOSUNNY   93  75  55 VRB3      29.99F HX 104
CAMBRIDGE      SUNNY     91  70  49 CALM      29.95F HX  97
SALISBURY      SUNNY     90  69  50 S8        29.96F
OCEAN CITY     SUNNY     82  75  79 SE6       29.97F
WALLOPS ISLAND FAIR      85  75  72 SE9       29.98S
ACCOMACK*      FAIR      88  72  58 CALM      29.97S
$$

NCZ012>017-030>032-242300-
NORTH CENTRAL AND EASTERN NORTH CAROLINA

CITY           SKY/WX    TMP DP  RH WIND       PRES   REMARKS
ROANOKE RAPIDS FAIR      91  73  55 SW7       29.98S HX 100
RALEIGH        PTSUNNY   94  71  47 S9        29.99S HX 101
ELIZABETH CITY MOSUNNY   93  75  55 S13       29.97S HX 104
AHOSKIE*       SUNNY     89  79  70 CALM      29.98S HX 104
EDENTON*       SUNNY     94  73  50 SW7       29.98S HX 104
CURRITUCK*     SUNNY     94  74  51 S3        29.97F HX 105
KILL DEVIL HLS MOSUNNY   94  78  59 S5        29.97S HX 108
MANTEO           N/A     90  81  74 SW15      29.98S HX 108
CAPE HATTERAS  SUNNY     87  78  74 SW9       30.02R HX 100
TARBORO*       FAIR      93  76  57 SW5       29.98F HX 105
GOLDSBORO      SUNNY     96  68  40 S6        29.97S HX 101
WASHINGTON     SUNNY     92  74  54 SW7       29.98S HX 101
GREENVILLE     SUNNY     95  75  52 SW5       30.00S HX 107
NEW BERN       SUNNY     91  75  59 S10       30.01S HX 101
WILMINGTON     MOSUNNY   90  76  63 S8        30.01S HX 101
$$

VAZ048-242300-
ELSEWHERE

CITY           SKY/WX    TMP DP  RH WIND       PRES   REMARKS
HARRISBURG PA  PTSUNNY   94  68  42 SE7       29.93S HX  98
BALTIMORE      PTSUNNY   92  65  40 SE6       29.94F
ANNAPOLIS      SUNNY     88  73  61 SE7       29.94F HX  95
ANDREWS AFB    FAIR      90  71  53 E10       29.95  HX  96
PHILADELPHIA   PTSUNNY   91  64  40 SW13      29.95S
GREENSBORO     CLOUDY    95  61  32 S7        30.01S HX  95
ROCKY MOUNT    SUNNY     93  75  55 SW7       29.99S HX 104
$$

VAZ100-242300-
MARINE

STATION/POSITION TIME  TEMP    WIND        PRES    WAVE   SWELL
                       AIR SEA DIR/SP/G            HT/PER HT/PER
                 (UTC) (F)     (DEG/KT/KT) (MB)    (FT/S) (FT/S)
BRANDYWINE LGT   2100   78     160/  9/ 10   N/A
CAPE MAY NJ      2100   82 73  160/  7/ 10 1014.8F
LEWES DE         2100   84 76  150/  5/  7 1015.0S
OCEAN-CITY-INLET 2100   81 70  140/  4/  6 1015.6S
WACHAPREAGUE VA  2100   84      80/  5/  7 1015.0F
THOMAS POINT MD  2200   88 83  120/  1/  1 1015.5F
GOOSES REEF MD   2100   89 88   CALM  /  2 1015.6F   0
COVE POINT MD    2100   87     170/  4/  5 1015.2F
SOLOMONS ISLAND  2100   90 86  120/  9/ 11   N/A
BISHOPS HEAD MD  2100   89     140/  5/  6 1015.1R
PINEY POINT MD   2100          160/ 10/ 11   N/A
POTOMAC MD       2100   89 86  140/  8/ 10 1013.5F   0
CAMBRIDGE MD     2100   92 86  350/  3/  4 1013.7F
LEWISETTA VA     2100   87 86  110/ 10/ 11 1014.2F
RAPPAHANNOCK LGT 2100          110/  8/  9 1015.3F
STINGRAY PT      2100   89 87   60/  6/  6 1015.0F   0
YORK RVR RNG VA  2100   85     140/ 10/ 11 1013.9F
YORKTOWN VA      2100   89 84   90/  8/  9 1014.0F
JAMESTOWN VA     2100   96 90     CALM       N/A     0
DOMINION TERM VA 2100   91     220/  7/  7 1014.5F
KIPTOPEKE VA     2100      78  160/ 10/ 11   N/A
CHES BAY BRIDGE  2100   83 75   80/  9/ 11 1014.5F
CAPE HENRY VA    2100   84     100/ 12/ 13   N/A
WILLOUBY STN VA  2100   86     100/  9/ 11   N/A
CAPE HENRY BUOY  2112      82                N/A     2/ 8
1ST LANDING BUOY 2100   81 78  110/  8/ 10 1014.3F
CAPE CHARLES BUO 2126      75                N/A     1/ 9
OFFSHORE WE BUOY 2121      83                N/A     2/ 9
64NM E OF VA BCH 2150   83 81  200/ 10/ 12 1015.2S   2/ 8   2/ 8
DUCK PIER NC     2100   84 61  150/  2/  4 1014.7S
44100 DUCK FRF   2105      81                N/A     2/ 8
44056 DUCK FRF   2111      79                N/A     1/ 8
OREGON INLET NC  2100   86 85  190/ 17/ 20 1015.5F
HATTERAS NC      2100   86 83  210/  8/ 12 1015.9F
DIAMOND SHLS NC  2050   85 85  230/ 14/ 16 1016.4    3/ 8   2/ 8
CAPE LOOKOUT NC  2200   86     210/  9/ 12 1016.1R
$$




USA.gov is the U.S. government's official web portal to all federal, state and local government web resources and services.